K5KVN-2 Weather Reports


time (UTC)temp
F
wind
direction
speed
knots
gust
knots
rain 1hr
in
rain 24hr
in
rain mn
in
humidity
%
barometer
mb
20260503203402 78 217 7.0 13.9 0.00 0.00 0.00 46 1015.1
20260503202401 77 184 7.8 14.8 0.00 0.00 0.00 47 1015.3
20260503201845 77 178 6.1 13.9 0.00 0.00 0.00 44 1015.4
20260503200358 77 205 7.0 13.9 0.00 0.00 0.00 44 1015.7
20260503195358 77 177 7.0 14.8 0.00 0.00 0.00 43 1015.7
20260503194837 77 174 7.8 13.9 0.00 0.00 0.00 49 1016.1
20260503193400 77 195 6.1 13.0 0.00 0.00 0.00 46 1016.3
20260503192359 76 188 5.2 11.3 0.00 0.00 0.00 46 1016.4
20260503191358 76 205 7.8 15.6 0.00 0.00 0.00 46 1016.5
20260503190358 75 192 7.8 14.8 0.00 0.00 0.00 47 1016.6
20260503185832 75 242 7.8 13.0 0.00 0.00 0.00 48 1016.7
20260503184357 75 184 5.2 11.3 0.00 0.00 0.00 46 1016.6
20260503183354 75 240 7.0 13.9 0.00 0.00 0.00 47 1016.7
20260503182353 74 210 7.0 14.8 0.00 0.00 0.00 48 1016.9
20260503181351 74 197 9.6 16.5 0.00 0.00 0.00 47 1017.0
20260503180352 74 204 8.7 14.8 0.00 0.00 0.00 44 1017.1
20260503175843 73 171 9.6 15.6 0.00 0.00 0.00 45 1017.3
20260503174353 73 182 7.8 13.9 0.00 0.00 0.00 46 1017.4
20260503173347 73 189 8.7 15.6 0.00 0.00 0.00 45 1017.5
20260503172345 71 184 11.3 19.1 0.00 0.00 0.00 46 1017.6
20260503171346 72 168 8.7 18.2 0.00 0.00 0.00 45 1017.8
20260503170345 71 187 9.6 16.5 0.00 0.00 0.00 47 1018.0
20260503150340 65 166 9.6 14.8 0.00 0.00 0.00 48 1019.3
20260503131336 53 128 0.9 2.6 0.00 0.00 0.00 66 1019.8
20260503130336 51 126 0.0 2.6 0.00 0.00 0.00 67 1019.8
20260503110321 41 134 0.0 0.0 0.00 0.00 0.00 88 1019.0
20260503090312 43 94 0.0 0.9 0.00 0.00 0.00 85 1019.5
20260503081310 43 108 0.0 0.0 0.00 0.00 0.00 87 1019.9
20260503080312 42 108 0.0 0.0 0.00 0.00 0.00 88 1019.9
20260503072804 43 108 0.0 0.0 0.00 0.00 0.00 86 1020.2
20260503071307 44 108 0.0 0.9 0.00 0.00 0.00 84 1020.2
20260503070307 44 108 0.0 0.0 0.00 0.00 0.00 83 1020.2
20260503060304 45 103 0.0 0.9 0.00 0.00 0.00 84 1020.7
20260503054740 45 198 0.9 2.6 0.00 0.00 0.00 82 1020.7
20260503053259 46 36 0.0 0.9 0.00 0.00 0.00 83 1020.7
20260503052300 45 340 0.0 0.0 0.00 0.00 0.00 83 1020.7
20260503051300 45 325 0.0 0.9 0.00 0.00 0.00 83 1020.7
20260503050259 45 296 0.0 0.0 0.00 0.00 0.00 80 1020.7
20260503045301 46 296 0.0 0.0 0.00 0.00 0.00 79 1020.5
20260503044748 46 296 0.0 0.0 0.00 0.00 0.00 77 1020.5
20260503043300 46 296 0.0 0.0 0.00 0.00 0.00 75 1020.6
20260503042740 47 296 0.0 0.0 0.00 0.00 0.00 75 1020.6
20260503041258 47 296 0.0 0.0 0.00 0.00 0.00 74 1020.6
20260503040738 47 296 0.0 0.0 0.00 0.00 0.00 73 1020.5
20260503035254 48 296 0.0 0.0 0.00 0.00 0.00 74 1020.5
20260503034254 48 296 0.0 0.0 0.00 0.00 0.00 72 1020.6
20260503033254 49 296 0.0 0.0 0.00 0.00 0.00 72 1020.5
20260503032252 49 296 0.0 0.0 0.00 0.00 0.00 68 1020.5
20260503031254 50 296 0.0 0.0 0.00 0.00 0.00 67 1020.4
20260503030255 51 296 0.0 0.0 0.00 0.00 0.00 64 1020.3
20260503025251 53 296 0.0 0.0 0.00 0.00 0.00 61 1020.3
20260503024249 54 296 0.9 1.7 0.00 0.00 0.00 58 1020.2
20260503023249 54 306 0.9 2.6 0.00 0.00 0.00 52 1020.1
20260503022250 54 304 0.0 0.0 0.00 0.00 0.00 57 1020.1
20260503021248 55 298 0.0 0.0 0.00 0.00 0.00 51 1020.0
20260503020728 55 299 0.0 0.0 0.00 0.00 0.00 51 1020.0
20260503015248 55 294 0.0 0.9 0.00 0.00 0.00 51 1020.0
20260503014248 56 288 0.0 0.0 0.00 0.00 0.00 52 1019.8
20260503013248 56 288 0.9 1.7 0.00 0.00 0.00 50 1019.7
20260503012246 56 298 0.9 1.7 0.00 0.00 0.00 51 1019.7
20260503011246 57 280 1.7 2.6 0.00 0.00 0.00 50 1019.5
20260503010244 58 281 1.7 3.5 0.00 0.00 0.00 49 1019.4
20260503005244 59 282 1.7 3.5 0.00 0.00 0.00 46 1019.4
20260503004246 60 293 1.7 3.5 0.00 0.00 0.00 44 1019.4
20260503003245 61 298 2.6 5.2 0.00 0.00 0.00 42 1019.4
20260503002244 62 304 2.6 7.0 0.00 0.00 0.00 40 1019.4
20260503001717 62 314 2.6 6.1 0.00 0.00 0.00 40 1019.5
20260503000237 62 280 3.5 7.0 0.00 0.00 0.00 41 1019.5
20260502235237 62 277 3.5 7.0 0.00 0.00 0.00 41 1019.5
20260502234237 62 329 4.3 7.8 0.00 0.00 0.00 41 1019.5
20260502233238 63 319 5.2 8.7 0.00 0.00 0.00 39 1019.5
20260502232235 63 309 5.2 8.7 0.00 0.00 0.00 40 1019.6
20260502231232 63 320 5.2 9.6 0.00 0.00 0.00 39 1019.5
20260502230231 63 306 5.2 9.6 0.00 0.00 0.00 38 1019.5
20260502225717 64 299 3.5 7.8 0.00 0.00 0.00 42 1019.4
20260502224229 64 336 5.2 9.6 0.00 0.00 0.00 39 1019.4
20260502223233 64 346 6.1 11.3 0.00 0.00 0.00 40 1019.6
20260502222231 64 335 3.5 8.7 0.00 0.00 0.00 39 1019.4
20260502221230 64 277 5.2 9.6 0.00 0.00 0.00 40 1019.3
20260502220231 64 298 5.2 9.6 0.00 0.00 0.00 38 1019.4
20260502215230 64 288 6.1 10.4 0.00 0.00 0.00 35 1019.5
20260502214230 64 299 7.0 12.2 0.00 0.00 0.00 38 1019.5
20260502213715 64 328 6.1 11.3 0.00 0.00 0.00 39 1019.7
20260502212229 64 301 6.1 9.6 0.00 0.00 0.00 36 1019.7
20260502211229 65 289 7.0 14.8 0.00 0.00 0.00 37 1019.8
20260502210229 65 280 4.3 11.3 0.00 0.00 0.00 40 1019.8
20260502205706 65 303 6.1 11.3 0.00 0.00 0.00 38 1020.0
20260502204229 65 333 7.0 13.9 0.00 0.00 0.00 40 1020.2